GFSSW_700_temp_102.txt.gz
Temp
8 8 8 8 9 9 8 8 8 9 9 9 9 9 9 9 8 8 7 7 7 7 7 8 8 8 8 7 7 6 6 7 7 7 8 9 9 8 8 9 9 10 8 9 8
8 8 9 8 9 8 8 8 8 9 9 9 9 9 9 8 7 6 6 7 7 7 7 7 7 7 7 7 6 6 6 6 7 8 8 8 8 8 8 8 8 10 9 9 9
8 8 8 8 8 8 8 8 8 8 8 8 8 8 8 7 6 6 6 6 6 6 6 6 6 7 7 7 6 6 7 6 6 6 7 8 8 7 7 8 8 9 9 9 9
8 8 9 8 8 8 8 8 8 8 8 8 8 8 7 6 6 5 5 5 5 5 6 6 6 6 6 6 6 6 6 6 6 6 6 7 7 7 7 8 8 8 9 9 9
8 8 8 8 8 8 8 8 8 8 8 8 8 7 7 6 5 5 5 5 5 5 5 5 5 5 5 5 5 5 5 5 5 5 5 6 7 7 7 7 8 8 8 8 8
8 8 8 8 8 8 8 8 8 8 8 8 8 7 6 6 5 5 5 4 4 4 4 4 4 4 5 5 4 5 5 6 5 6 6 5 7 7 7 7 7 8 7 8 8
8 8 8 8 8 8 8 8 8 8 8 7 7 7 6 6 5 5 5 5 4 4 4 4 3 3 3 4 3 4 4 5 6 5 5 5 7 7 7 7 7 7 8 8 8
8 8 8 8 8 8 8 8 8 8 7 7 7 7 6 6 6 5 5 5 4 3 3 3 3 3 3 3 3 4 4 3 4 4 4 5 6 6 6 7 7 7 7 8 8
8 8 8 8 8 8 8 8 8 7 7 7 7 7 6 6 6 5 5 5 4 4 3 3 3 3 3 2 2 3 2 3 3 4 4 4 4 5 6 6 6 7 7 7 8
8 7 7 7 7 7 7 7 8 7 7 7 7 6 6 6 5 5 5 5 4 4 3 3 3 3 3 2 2 2 2 2 3 3 3 4 4 5 5 6 6 7 7 7 7
7 7 7 7 7 7 7 7 7 7 7 6 6 6 6 6 5 5 5 5 4 4 4 3 3 2 2 2 2 2 2 2 3 3 2 3 4 4 5 5 6 6 6 7 7
7 8 7 7 7 7 7 7 7 7 7 6 6 6 6 6 5 5 5 4 4 4 4 3 3 2 2 2 2 2 2 2 2 2 2 3 3 3 4 6 6 7 6 7 7
8 8 8 8 7 6 7 7 7 7 7 6 6 6 6 6 5 5 5 4 4 4 4 3 3 2 2 2 2 2 2 2 2 2 2 2 3 3 3 4 6 6 6 7 7
7 8 8 8 8 7 7 7 7 7 6 6 6 5 5 5 5 5 4 4 4 4 4 4 3 3 2 2 2 2 3 2 2 2 1 2 1 2 2 3 5 6 7 7 7
7 7 8 8 8 7 6 7 7 7 4 5 5 5 5 5 4 5 4 4 4 4 4 4 4 3 3 3 2 3 3 2 -0 -1 -1 1 -1 2 2 3 4 6 7 7 7
7 7 7 8 8 7 7 7 7 6 5 5 5 5 5 5 4 4 4 4 4 4 5 4 4 3 3 3 3 3 2 1 1 -0 -1 -0 0 2 1 2 4 5 6 7 7
7 7 7 7 7 7 7 7 6 6 5 5 5 5 5 4 4 4 4 4 3 3 4 4 4 4 3 3 3 2 1 -1 -1 -1 -1 -1 -1 2 1 2 3 6 6 7 7
6 6 6 7 7 7 7 7 6 5 5 5 5 5 4 4 4 4 4 3 3 3 3 2 4 4 3 4 3 2 2 -1 -2 -0 -1 -1 -1 0 1 2 3 5 6 6 7
6 6 6 6 6 7 7 7 5 4 4 4 4 4 4 4 4 4 3 3 2 2 2 2 4 5 4 4 3 3 2 0 -1 -1 -2 2 1 1 1 1 4 5 5 6 6
6 6 6 6 6 7 7 6 5 4 3 4 4 4 4 3 4 3 3 3 2 2 2 2 2 4 4 4 3 3 3 1 -0 0 -2 2 2 1 2 -0 2 3 4 4 5
6 6 6 6 6 6 6 6 5 4 3 4 3 3 3 2 2 3 2 2 2 2 2 2 1 4 4 3 3 3 3 3 1 -0 0 -2 2 1 2 2 2 1 1 3 3
5 5 5 5 5 5 5 5 5 4 4 3 3 3 2 2 2 2 2 2 2 2 2 2 2 2 5 4 4 3 3 3 3 2 0 -0 1 2 2 3 3 2 1 1 3
5 5 5 5 5 5 5 4 4 4 4 3 3 2 2 2 2 2 2 2 2 2 2 2 2 2 4 4 4 4 4 3 3 3 2 0 2 2 2 2 3 3 3 4 4
4 4 5 5 5 5 4 4 4 4 4 3 3 2 2 1 1 2 2 2 2 2 2 2 2 1 1 2 2 3 3 3 4 4 3 3 2 2 2 2 3 3 3 4 4
4 4 4 4 5 5 4 4 4 4 4 3 2 2 1 1 1 1 2 2 3 2 2 1 2 2 3 3 3 4 3 3 3 3 3 3 3 3 2 2 3 4 4 4 4
4 4 4 4 4 4 4 4 4 3 3 3 2 2 2 1 0 -0 1 2 2 2 1 1 2 2 4 4 4 4 4 4 3 3 3 3 3 3 3 2 2 2 2 3 3
4 4 4 4 3 3 4 4 3 3 3 3 2 2 2 1 0 0 1 2 2 2 2 1 1 1 4 4 4 4 4 4 4 4 4 3 3 2 2 3 3 3 2 2 2

GFSSW_700_temp_108.txt.gz
Temp
9 9 9 9 9 9 9 9 9 9 9 9 10 9 9 9 9 8 8 7 7 7 7 7 7 7 7 7 7 6 5 6 5 5 6 6 7 7 7 8 8 8 8 9 9
9 9 9 9 9 9 9 9 9 9 9 9 9 9 8 8 8 7 7 7 7 7 6 7 7 6 6 6 6 5 5 5 5 4 5 6 6 6 6 7 7 8 8 8 9
9 9 9 9 9 9 9 9 9 9 8 8 8 8 8 8 7 7 7 7 6 6 6 6 6 6 6 5 5 5 5 5 4 4 4 5 6 6 5 6 7 7 7 8 9
9 9 9 9 9 9 9 9 8 8 8 8 8 8 8 7 7 6 6 6 6 6 6 5 5 5 5 5 4 4 4 4 4 5 5 5 5 6 6 6 6 7 7 8 9
8 8 9 9 9 8 9 9 8 8 8 8 7 7 7 7 6 6 6 6 6 6 5 4 4 4 4 4 4 4 3 4 4 5 5 5 5 5 6 6 6 7 7 8 9
8 8 8 8 8 8 8 8 8 8 8 7 7 7 7 6 6 6 6 6 5 5 4 4 3 3 3 3 3 3 3 3 4 4 4 5 5 5 6 6 5 7 7 7 8
8 8 8 8 8 8 8 8 8 8 7 7 7 6 6 6 6 6 6 5 5 5 5 4 4 3 3 3 2 2 3 3 3 3 3 4 5 5 5 6 6 6 7 7 8
8 8 8 8 8 7 7 8 8 8 7 7 7 6 6 6 6 5 5 5 5 5 5 4 3 3 3 2 2 2 2 2 4 3 3 3 3 4 4 4 5 6 6 7 7
8 8 8 8 7 7 7 8 8 7 7 7 7 6 6 5 5 5 5 5 5 5 5 4 4 3 3 2 2 2 1 2 3 3 2 2 2 3 4 4 4 5 6 6 6
8 8 8 8 8 8 7 7 8 7 7 7 7 6 6 5 5 5 5 5 5 5 5 4 4 3 2 2 2 1 2 2 2 3 2 2 3 3 3 4 4 4 5 5 6
8 8 8 8 8 8 7 8 7 7 7 6 6 6 6 5 5 5 5 5 5 4 5 4 3 2 2 2 2 2 2 2 2 2 1 1 1 2 3 4 4 4 4 5 5
8 8 8 8 8 8 8 7 7 7 7 6 6 6 6 5 5 5 5 5 5 5 5 5 3 3 3 3 2 3 2 2 1 1 1 1 1 3 3 3 3 3 4 5 5
7 8 8 8 8 8 8 8 8 7 6 6 6 6 6 5 4 5 5 5 5 5 5 5 4 4 3 3 3 3 2 2 1 2 1 -0 1 1 1 1 2 3 4 4 5
7 7 8 8 8 9 8 8 7 7 6 6 5 5 5 5 4 4 5 5 4 4 5 4 4 4 4 3 3 3 2 2 2 2 -0 -1 -2 1 1 2 2 2 3 4 5
7 7 7 7 8 8 8 8 7 6 4 5 5 5 5 5 4 4 4 5 4 4 5 5 4 4 4 4 3 3 2 3 4 2 0 -1 -2 1 1 2 2 2 2 3 5
7 7 7 7 7 8 8 8 8 7 5 5 5 5 5 4 4 4 4 4 5 5 5 5 4 4 3 4 3 3 4 3 4 2 -0 -2 -2 0 -1 -1 2 2 3 3 5
7 7 7 7 7 7 8 8 7 7 6 5 5 5 5 4 4 4 4 4 4 4 5 5 5 4 3 4 3 3 3 0 -1 -2 -3 -1 -1 -1 -1 -1 0 2 2 3 5
7 7 6 7 7 7 7 8 7 7 6 5 5 5 4 4 4 4 4 3 3 3 2 2 4 4 3 3 3 2 1 -1 -0 -1 -1 0 -0 -2 -2 -1 0 1 2 3 5
6 6 6 6 6 7 7 7 7 7 7 6 5 5 4 4 4 3 3 2 2 2 2 2 4 4 3 3 3 2 2 0 0 -2 -2 0 1 -1 -2 -0 0 1 3 3 4
6 6 6 6 6 6 6 7 6 6 6 6 5 5 4 4 3 3 3 2 2 2 2 1 2 5 4 3 3 2 2 1 1 -3 -1 0 0 -1 -1 -1 0 1 2 4 4
6 6 6 6 6 6 6 6 6 6 6 6 5 5 4 4 3 3 2 2 2 2 2 2 1 5 4 3 3 3 2 1 0 0 -2 -0 0 0 -1 -1 -0 0 1 2 3
5 5 6 6 6 6 6 6 6 6 5 5 5 5 4 4 3 3 2 2 2 2 2 2 1 2 4 4 3 3 2 1 1 1 0 -1 1 1 1 -0 -1 0 1 1 2
5 5 5 5 5 6 6 6 5 5 5 5 4 4 4 4 3 3 2 2 2 2 2 2 2 2 4 3 3 3 3 2 2 2 1 -1 2 1 2 2 1 2 2 1 2
4 4 5 5 6 6 6 5 5 5 5 4 4 4 3 4 3 3 2 1 1 1 2 2 1 1 2 2 2 3 3 2 2 2 2 3 3 2 2 2 2 2 2 2 2
3 4 5 5 6 6 5 5 5 5 5 5 4 4 3 3 3 4 3 2 1 1 2 2 2 2 3 3 3 4 4 3 3 2 2 3 2 2 2 2 2 2 2 2 3
3 3 4 5 5 5 5 6 6 5 5 5 4 4 3 3 3 3 3 2 2 1 1 1 1 2 4 3 3 4 4 4 3 3 3 3 3 2 2 2 2 2 2 2 2
3 3 4 5 5 4 5 6 6 5 4 4 4 4 4 3 3 3 3 3 2 1 1 0 1 1 3 2 3 4 4 4 4 4 4 4 4 3 2 2 2 2 2 2 2

GFSSW_700_temp_111.txt.gz
Temp
8 9 9 9 9 9 9 9 9 9 9 9 9 9 9 9 9 8 8 8 8 7 7 7 7 7 7 7 6 6 5 5 6 5 5 5 6 6 6 7 7 8 8 8 9
9 9 9 9 9 9 9 9 9 9 9 9 9 9 8 8 8 8 8 7 7 7 7 6 6 6 6 6 6 6 5 5 5 5 5 5 5 6 6 6 7 7 8 8 8
9 9 9 9 9 9 9 9 9 8 9 8 8 8 8 8 7 8 7 7 7 7 6 6 6 6 6 6 5 5 5 4 4 4 4 5 5 5 6 6 6 7 7 7 8
8 9 8 8 8 8 9 9 8 8 8 8 8 8 8 7 7 7 7 7 6 6 6 6 6 5 5 5 4 4 4 3 4 4 4 5 5 6 6 5 5 6 7 7 7
8 8 8 8 8 8 8 8 8 8 8 8 7 7 7 7 7 7 7 6 6 6 5 5 5 5 4 4 4 3 3 3 3 4 4 4 5 5 6 5 5 6 6 7 7
8 8 8 8 8 8 8 8 8 8 7 7 7 7 7 7 6 6 6 6 5 5 5 5 4 4 4 3 3 3 3 3 4 3 4 4 4 5 5 5 5 5 6 7 7
8 8 8 8 8 8 8 8 8 8 7 7 6 6 6 6 6 6 6 5 5 5 5 4 4 3 3 3 2 2 3 3 3 3 3 3 4 4 4 4 4 5 6 7 7
8 8 9 8 8 8 7 7 8 7 7 7 6 6 6 6 5 5 5 5 5 5 5 5 4 3 3 3 3 3 2 3 3 3 3 2 3 4 4 4 3 5 5 6 7
8 9 8 8 8 8 7 7 7 7 7 7 6 6 6 5 5 5 5 5 5 5 5 4 4 4 3 3 3 2 2 2 3 3 2 2 2 4 3 3 4 4 5 5 6
8 8 8 8 8 8 7 7 7 7 7 6 6 6 6 5 5 5 5 5 5 5 5 4 4 4 3 2 1 2 1 2 2 2 2 2 2 3 3 3 3 4 4 4 6
8 8 8 8 8 8 8 7 7 7 7 6 6 6 6 5 5 5 5 5 5 5 5 4 4 3 3 3 2 2 2 2 2 1 0 1 1 2 2 3 3 3 4 4 4
8 8 8 8 8 8 8 7 7 7 6 6 6 6 6 6 5 5 5 6 5 5 5 4 4 4 3 3 3 3 2 2 3 1 1 0 1 0 0 2 2 3 3 4 4
8 8 8 8 8 8 8 8 7 7 6 6 6 6 5 5 5 5 5 5 5 5 5 4 4 4 3 3 4 3 2 1 2 2 1 1 1 1 1 1 1 1 2 3 4
7 7 8 8 8 8 8 8 7 7 7 6 5 5 5 5 5 5 5 5 5 5 5 4 4 4 4 4 3 4 3 2 3 2 0 -1 -0 0 1 1 1 1 1 3 3
7 7 7 7 7 8 8 8 7 6 5 6 6 5 5 5 4 4 4 5 5 5 4 4 4 4 4 3 3 3 3 3 3 2 2 -2 -2 0 -0 1 1 2 2 2 3
7 7 7 7 7 7 8 8 7 7 6 6 6 5 5 4 4 4 4 5 5 5 5 4 4 4 3 4 3 4 4 3 3 3 1 -2 -2 -0 -2 -2 -0 1 2 2 3
7 7 7 7 7 7 7 7 7 7 7 6 6 6 6 5 4 4 4 4 4 5 5 5 4 4 3 4 4 4 4 1 2 0 1 -1 -1 -1 -2 -1 -0 0 2 2 3
6 7 7 7 7 7 7 7 7 7 7 7 7 6 6 5 4 4 4 3 3 3 3 3 4 4 3 3 3 2 2 0 -0 -0 -0 1 0 -2 -2 -0 -0 -0 2 2 3
6 7 7 7 6 6 6 7 7 7 7 7 7 6 6 5 4 3 3 3 3 2 2 2 4 4 3 3 3 2 2 0 -0 -2 -2 0 1 -1 -1 -0 0 0 2 3 3
6 6 6 6 6 6 6 6 7 7 7 7 6 6 6 5 4 4 3 3 2 2 2 2 3 4 3 3 3 2 2 1 1 -2 -0 1 -0 -1 -2 -0 1 0 2 3 4
5 6 6 6 6 6 6 6 6 6 6 6 6 6 5 5 4 4 3 2 2 2 2 2 2 4 3 3 3 3 2 1 0 -0 -0 0 1 0 -1 -0 0 1 2 3 3
5 5 6 6 6 6 6 6 6 6 6 6 6 6 5 5 5 4 3 2 2 2 2 2 1 3 3 3 3 3 2 1 0 1 -1 -1 1 1 1 -0 0 1 1 1 3
4 5 5 5 5 6 6 6 6 6 6 5 5 5 5 5 4 4 3 2 1 1 1 1 2 2 3 3 3 3 3 2 1 1 1 1 2 2 1 1 1 -0 1 1 2
3 3 4 5 5 5 6 6 6 6 6 5 5 5 5 5 4 4 3 2 1 1 1 1 2 2 2 2 2 3 3 2 2 2 2 2 2 2 2 2 2 1 2 1 1
2 3 4 5 5 6 5 5 6 5 5 5 5 5 5 4 4 4 4 3 2 2 2 1 2 2 2 2 3 3 4 3 3 3 2 3 2 2 2 2 2 2 2 1 1
2 2 3 4 5 5 4 5 5 5 5 6 5 5 4 5 3 3 4 3 2 1 1 1 2 2 3 3 3 3 3 4 4 4 4 3 3 2 2 2 2 2 2 2 2
3 2 3 3 4 4 5 6 6 5 5 5 4 4 5 4 4 3 3 3 3 2 1 0 1 1 2 3 3 4 4 4 4 4 4 4 3 3 2 2 2 2 2 2 2

GFSSW_700_temp_117.txt.gz
Temp
9 9 9 9 9 9 9 9 9 9 9 9 9 9 9 9 9 9 8 8 8 8 8 8 8 7 7 7 7 7 5 7 8 8 8 8 7 7 7 6 7 7 7 7 7
9 9 9 9 9 9 9 9 8 9 9 8 9 9 8 8 8 8 8 8 8 8 8 7 7 7 6 6 6 6 6 7 7 6 6 6 7 7 7 6 7 7 7 7 8
9 9 9 9 9 9 8 8 8 8 8 8 8 8 8 8 8 7 7 7 7 7 7 7 7 6 4 5 4 5 5 6 5 5 5 5 5 5 5 6 6 7 7 7 7
9 9 9 9 8 8 8 8 8 8 8 8 8 8 8 8 6 7 7 7 7 7 7 7 5 4 4 4 4 5 5 4 4 4 4 4 4 5 5 5 5 5 6 6 6
8 8 8 8 8 8 8 8 8 8 8 8 8 8 8 7 7 7 7 7 7 6 6 6 5 5 4 4 4 4 4 4 3 3 3 3 4 4 4 5 5 5 5 5 5
8 8 8 8 8 8 8 8 8 8 8 8 8 7 7 6 7 7 7 6 6 6 6 6 5 5 4 4 4 4 3 4 4 3 3 3 4 4 4 5 4 4 5 5 5
8 8 8 9 8 8 8 8 8 8 8 8 7 7 7 6 6 6 6 6 6 5 5 6 5 5 4 4 5 5 4 5 4 4 4 3 4 5 4 4 4 4 5 5 5
8 8 8 8 9 9 8 8 8 8 8 7 7 7 5 6 6 6 6 6 6 6 6 5 5 5 5 4 4 4 5 6 5 4 4 3 4 5 5 4 4 4 5 5 5
8 8 8 8 9 9 8 8 8 8 7 7 7 6 5 6 6 6 6 5 5 5 6 5 5 5 4 5 7 7 7 6 5 5 4 3 4 4 4 3 3 3 4 4 5
8 8 8 8 9 9 9 8 8 7 7 7 6 6 7 6 6 6 6 5 5 5 5 5 5 5 6 5 6 5 5 5 6 5 4 3 4 3 2 1 2 2 3 4 4
7 8 8 8 9 9 9 8 8 7 7 7 6 6 6 6 6 6 5 5 6 4 5 5 5 6 5 4 4 4 5 6 5 4 3 3 3 2 2 1 1 1 2 3 4
7 7 8 8 8 8 9 9 8 7 7 7 6 6 6 6 6 5 5 5 5 5 5 5 6 5 5 4 4 5 6 6 5 4 3 3 3 3 2 1 0 1 1 1 1
7 7 7 8 8 8 8 8 8 7 6 7 6 6 6 6 5 5 6 5 5 5 5 5 5 5 4 5 5 5 5 4 3 4 4 4 4 3 2 0 -1 -1 -0 -0 1
7 7 7 7 8 8 8 8 8 7 7 7 7 6 6 6 6 6 6 6 5 5 6 5 5 5 4 5 4 5 4 2 3 4 6 4 6 4 1 0 -0 -1 -0 -0 1
7 7 7 7 7 7 8 8 8 7 10 8 7 7 6 6 6 6 6 6 5 5 5 6 5 5 4 4 4 4 3 4 3 4 5 5 4 4 1 1 1 -0 1 2 2
7 6 6 7 7 7 7 7 7 6 10 8 7 7 7 6 6 6 6 6 5 6 6 5 5 5 5 5 4 3 4 4 3 5 6 4 2 4 0 -1 -0 -0 1 2 2
6 6 6 6 7 7 7 7 6 8 8 7 7 7 7 6 6 6 6 5 5 5 6 6 4 5 5 4 5 4 5 6 6 6 7 4 4 1 0 -0 -1 -1 1 1 2
5 6 6 6 6 6 6 6 7 9 8 8 8 7 6 7 6 6 4 5 4 4 5 5 6 5 4 4 4 3 3 3 1 5 4 4 3 2 1 -0 -0 -0 2 2 2
5 5 6 6 6 6 6 6 9 9 7 8 7 7 6 7 6 5 5 4 5 4 4 5 5 5 5 4 4 4 4 3 1 2 3 5 5 2 1 0 1 1 2 3 2
5 5 6 5 5 5 5 6 8 8 8 7 7 7 7 5 6 5 5 5 4 4 3 3 4 4 5 4 4 4 3 4 4 3 5 8 6 4 2 1 0 1 1 2 2
4 4 6 5 5 5 4 6 7 7 7 7 6 7 6 6 6 5 5 5 4 4 3 2 3 5 4 4 4 4 4 4 3 4 5 7 6 2 1 1 1 1 1 0 1
3 4 5 5 5 5 4 5 6 7 7 7 7 7 6 6 6 5 5 4 5 3 2 2 2 4 5 5 4 4 3 3 4 5 5 5 5 2 2 1 1 2 1 1 2
3 2 4 4 4 4 5 5 6 7 7 7 7 6 7 6 5 5 5 5 5 4 2 2 3 5 5 4 4 3 3 3 3 3 6 6 6 4 3 2 2 2 2 2 2
0 1 3 4 4 4 4 5 6 7 6 6 6 6 6 6 5 5 5 5 5 4 3 2 2 3 6 5 3 3 3 2 2 3 6 6 5 3 3 3 2 2 2 1 1
-0 1 2 4 4 4 5 4 6 6 6 6 6 6 6 5 5 5 4 5 5 4 4 3 2 3 3 4 3 3 3 2 2 3 4 5 4 3 3 3 2 2 2 2 1
0 0 1 2 3 4 4 5 5 6 6 6 6 6 6 6 5 6 5 4 3 4 3 3 2 3 3 3 4 4 3 3 2 3 3 3 3 3 3 3 3 3 3 2 2
-2 -2 0 2 2 2 5 6 5 6 7 6 6 6 6 5 5 5 4 4 4 3 3 2 2 2 5 4 3 5 5 4 3 4 4 4 4 4 3 3 3 3 2 2 2